Location: Adrasan
(36.3319°N, 30.4314°E)
Time: 12:41:23
(UTC+00:00)

Cosmos 1842 Rocket - Pass Details

Date: 09 December 2023
Orbit: 602 x 631 km, 82.5° (Epoch: 20 February)

Event Time Altitude Azimuth Distance (km) Brightness Sun altitude
Rises 16:23:35 0° 189° (S) 2,838 7.3 -19.7°
Reaches altitude 10° 16:25:47 10° 190° (S) 1,941 6.4 -20.1°
Maximum altitude 16:30:04 78° 276° (W) 623 3.6 -20.9°
Enters shadow 16:33:04 20° 2° (N) 1,431 5.3 -21.5°
